Temp
51 52 52 53 52 52 47 41 31 45 49 35 36 32 41 49 49 56 53 55 56 52 52 52 51 51 57 62 61 55 58 51 42 51 58 60 57 55 52 43 41 39 38 38
51 51 51 52 52 52 39 35 35 45 47 30 31 40 41 47 49 50 51 50 54 59 51 46 52 52 60 61 60 56 57 48 39 44 51 54 54 56 55 49 45 41 36 41
50 51 51 51 52 52 43 34 24 36 38 39 35 37 34 38 50 51 53 53 55 52 50 52 49 51 56 59 62 55 61 49 44 42 46 53 50 53 53 50 38 40 40 45
51 50 50 51 51 51 44 36 30 35 30 33 35 36 39 37 41 51 53 51 53 51 45 49 47 50 51 54 53 56 57 47 47 50 54 53 53 51 50 47 46 42 47 47
50 50 50 50 51 51 41 33 33 36 34 37 35 37 35 36 43 47 46 47 52 53 49 48 45 50 49 51 53 52 53 47 48 46 51 52 49 50 49 48 49 48 48 48
50 50 50 50 50 49 40 40 40 37 35 34 33 36 36 38 46 48 53 52 51 50 52 54 55 54 55 55 52 48 48 46 40 40 47 46 39 45 47 49 50 52 46 54
50 50 49 49 50 49 44 42 40 34 28 32 34 39 41 39 44 45 51 54 51 56 58 57 54 53 53 53 51 52 44 42 38 35 38 32 47 54 55 50 53 53 54 53
50 50 50 49 49 50 44 44 40 35 29 34 35 38 39 44 47 48 50 52 58 56 52 41 38 39 44 46 49 49 48 40 33 33 31 39 45 50 50 49 48 54 52 53
49 49 49 49 49 49 46 44 45 39 32 31 40 38 40 38 41 45 48 54 57 54 44 36 35 36 39 38 43 50 48 47 39 33 27 29 44 54 58 55 43 51 52 48
48 48 48 48 49 48 47 44 46 40 33 38 41 36 38 45 43 42 45 47 50 54 42 35 34 37 43 37 41 37 38 36 39 30 29 33 49 55 58 41 44 49 50 49
48 48 48 48 48 49 45 44 45 41 34 38 42 44 42 42 44 41 44 45 42 42 40 40 34 34 41 38 45 43 39 36 33 34 29 33 53 52 47 49 46 48 48 47
47 47 48 47 48 49 49 41 45 46 38 38 45 47 49 43 50 51 44 49 45 46 42 38 36 33 33 39 39 47 41 45 38 41 39 48 48 48 47 48 46 46 47 48
47 47 47 47 47 47 47 43 43 42 38 36 38 37 44 46 46 50 44 39 45 43 42 39 36 36 36 34 38 42 45 49 43 45 47 45 44 45 47 47 46 48 48 48
46 46 45 45 46 47 46 41 44 43 39 33 33 44 42 47 44 45 47 45 41 40 40 34 33 33 35 34 37 40 42 46 44 44 43 44 44 44 45 47 48 49 51 50
46 45 47 48 49 47 45 44 46 46 40 29 32 38 43 47 44 44 45 46 41 38 34 33 33 33 34 34 35 34 40 40 41 41 42 43 42 45 47 46 46 48 48 47
47 47 47 48 50 47 43 37 44 48 44 34 29 35 39 43 45 44 41 41 38 37 35 32 33 38 37 34 33 39 43 45 46 42 45 44 46 46 46 44 45 46 47 48
47 47 47 49 48 45 39 37 42 47 44 33 30 31 36 40 42 40 39 40 38 36 32 32 33 35 36 33 31 39 43 44 46 47 46 43 45 43 47 47 48 48 45 42
46 46 46 47 48 46 42 44 47 47 38 35 29 29 33 40 34 33 39 33 33 33 32 32 32 34 33 30 36 42 45 45 44 45 46 46 47 46 44 46 45 41 38 38
47 46 46 43 41 35 39 46 45 44 38 31 31 28 27 38 34 36 35 35 30 33 31 32 34 31 29 34 36 38 41 42 43 42 42 41 39 38 38 39 38 35 34 34
46 42 37 32 38 46 45 39 35 34 34 35 31 33 30 34 32 31 30 30 29 27 30 34 30 29 38 40 41 42 42 43 43 38 35 35 35 36 37 36 37 37 35 35
36 35 34 39 45 38 34 31 30 29 30 33 32 33 31 37 28 26 32 27 27 26 28 29 28 29 35 40 38 39 39 38 38 38 39 40 39 37 35 34 34 34 33 32
38 38 40 38 35 31 30 28 31 31 29 32 31 32 35 35 37 31 27 28 28 26 29 26 25 31 36 36 35 35 36 37 37 39 38 38 37 36 34 33 31 31 31 31
39 34 30 29 29 26 27 23 28 27 31 33 32 31 33 34 36 31 31 27 22 32 21 24 30 34 35 34 34 33 34 35 35 34 34 33 33 33 32 31 31 31 30 29
30 28 22 22 27 29 29 28 29 31 33 35 32 29 31 29 31 29 27 29 30 20 18 26 29 33 33 33 33 32 30 32 32 31 31 31 30 29 30 30 30 29 27 26
30 30 26 27 30 31 32 31 30 31 32 32 29 29 31 28 27 29 28 24 20 25 24 26 29 33 32 31 31 31 31 31 31 31 30 29 29 29 28 29 30 28 18 17
33 32 27 26 24 29 30 26 26 32 25 30 29 26 25 26 26 27 23 26 22 26 27 27 32 32 32 31 32 32 32 32 32 31 31 31 29 29 28 26 23 16 17 15
34 26 25 24 23 22 32 27 26 36 31 23 27 24 27 25 24 26 26 21 26 25 25 31 34 32 31 30 32 32 32 32 32 31 31 28 29 27 26 24 24 26 22 15
MSLP
1011.55 1011.73 1012.08 1012.58 1013.19 1013.88 1014.51 1015.02 1014.42 1012.53 1012.71 1014.25 1013.03 1012.60 1010.15 1008.16 1006.88 1007.18 1006.44 1005.24 1004.62 1004.66 1004.42 1004.09 1004.32 1003.87 1003.01 1002.98 1003.70 1005.21 1005.25 1006.23 1006.47 1005.65 1004.70 1004.88 1005.16 1005.65 1006.84 1008.48 1009.33 1009.82 1009.59 1007.69
1010.41 1010.60 1011.04 1011.55 1012.32 1012.92 1013.98 1014.11 1013.56 1012.42 1012.79 1012.36 1011.87 1011.36 1009.72 1007.63 1006.33 1006.06 1006.26 1005.83 1004.65 1004.20 1004.30 1004.28 1003.89 1003.30 1002.57 1002.64 1003.42 1003.68 1004.61 1005.74 1006.71 1006.11 1005.41 1004.93 1005.07 1005.30 1005.98 1007.24 1008.19 1008.89 1009.27 1007.48
1009.39 1009.60 1009.90 1010.54 1011.15 1011.87 1013.12 1013.45 1012.87 1012.33 1012.18 1011.29 1011.12 1010.06 1009.45 1007.33 1006.01 1005.40 1005.51 1005.08 1005.44 1004.57 1004.02 1003.87 1003.59 1003.27 1002.67 1002.99 1002.97 1003.19 1003.46 1004.76 1005.03 1005.16 1004.44 1004.16 1004.96 1005.07 1005.78 1006.70 1008.30 1008.33 1007.85 1007.14
1008.38 1008.57 1008.90 1009.22 1009.85 1010.66 1012.05 1012.10 1011.46 1010.90 1010.34 1010.40 1009.90 1009.92 1008.65 1007.26 1005.47 1004.83 1005.00 1005.10 1004.72 1004.11 1004.72 1003.70 1003.61 1003.20 1003.26 1003.32 1003.31 1003.70 1004.09 1004.60 1004.91 1004.58 1004.47 1004.33 1004.64 1004.99 1005.68 1006.36 1006.95 1007.42 1007.16 1006.59
1007.18 1007.19 1007.33 1007.44 1008.19 1009.36 1010.44 1010.37 1010.37 1010.49 1009.67 1009.16 1009.05 1008.32 1007.16 1005.93 1004.73 1003.40 1003.44 1003.65 1002.79 1003.09 1003.34 1003.52 1003.49 1003.09 1003.34 1002.83 1003.84 1004.11 1004.27 1004.85 1005.26 1005.45 1005.28 1004.88 1005.07 1005.02 1005.28 1005.76 1006.21 1006.29 1006.57 1006.05
1005.79 1005.88 1005.89 1005.72 1006.37 1007.79 1007.63 1008.83 1008.96 1009.30 1008.68 1008.20 1008.19 1006.71 1005.20 1004.62 1004.03 1002.87 1002.17 1001.22 1002.70 1002.38 1001.99 1003.22 1003.24 1002.98 1002.53 1002.60 1003.30 1004.05 1004.58 1005.17 1006.26 1006.54 1006.20 1005.90 1005.69 1004.51 1004.99 1005.41 1005.49 1005.65 1005.82 1005.15
1004.41 1004.47 1004.61 1004.62 1004.61 1005.68 1006.41 1007.01 1007.79 1008.30 1007.50 1007.39 1006.50 1006.03 1005.02 1004.00 1003.18 1001.92 1001.76 1001.89 1001.59 1000.82 1002.57 1003.21 1003.24 1003.71 1003.67 1003.35 1003.56 1004.05 1005.08 1005.60 1006.78 1007.59 1007.56 1006.68 1003.72 1003.10 1002.88 1003.83 1004.30 1004.68 1004.66 1004.86
1002.72 1002.84 1002.99 1003.31 1003.28 1004.01 1004.98 1005.59 1005.97 1006.66 1006.24 1006.14 1005.54 1005.17 1004.32 1003.34 1003.03 1001.79 1001.29 1000.75 1000.72 1001.78 1003.05 1003.82 1004.98 1005.19 1004.70 1003.95 1004.30 1004.48 1005.19 1006.25 1007.96 1008.79 1008.33 1006.09 1004.64 1003.63 1003.51 1003.62 1004.02 1004.33 1004.85 1005.00
1001.01 1001.16 1001.48 1001.83 1002.21 1002.32 1003.48 1003.93 1004.56 1005.44 1005.39 1004.11 1003.56 1003.62 1003.42 1002.43 1001.68 1001.21 1000.46 1000.81 1001.28 1002.09 1003.17 1004.13 1004.80 1005.33 1004.90 1004.71 1004.61 1004.90 1005.41 1005.94 1007.57 1009.16 1008.80 1006.06 1003.94 1003.05 1003.02 1003.81 1003.63 1004.41 1004.90 1005.81
999.23 999.43 999.82 1000.36 1000.75 1000.97 1001.47 1001.93 1003.35 1004.60 1004.12 1001.92 1002.78 1002.50 1001.77 1001.57 1001.57 1000.39 1000.41 1000.89 1001.59 1001.62 1003.46 1004.79 1004.56 1004.83 1003.79 1003.91 1003.92 1005.13 1005.97 1006.59 1007.27 1008.66 1007.82 1005.76 1003.91 1003.16 1003.46 1004.72 1003.95 1004.78 1005.60 1006.16
997.33 997.62 998.10 998.63 999.19 999.79 1000.51 1000.09 1001.24 1002.20 1002.37 1001.49 1001.65 1001.75 1001.46 1001.71 1001.13 999.69 999.36 1000.83 1001.24 1002.47 1003.80 1004.69 1004.34 1004.25 1003.47 1003.45 1002.86 1003.13 1004.64 1006.06 1006.87 1007.52 1007.32 1004.91 1004.00 1004.11 1004.48 1004.42 1004.98 1005.57 1006.20 1006.67
995.80 996.02 996.22 996.62 997.08 997.36 998.64 999.28 999.96 1001.54 1002.23 1001.53 1001.03 1000.92 1000.31 1001.08 999.75 998.81 999.10 998.59 1000.33 1000.71 1002.19 1003.24 1003.89 1004.55 1003.85 1003.18 1003.05 1002.68 1003.37 1002.73 1004.30 1004.84 1004.67 1004.55 1004.43 1004.59 1004.94 1004.95 1005.62 1006.52 1006.74 1007.13
994.54 994.41 994.23 994.34 995.01 995.87 996.46 997.49 999.14 1000.50 1001.65 1002.00 1001.53 1000.88 1000.55 999.88 999.28 997.03 998.08 999.66 999.67 1000.58 1000.16 1001.92 1003.50 1004.09 1003.91 1003.70 1003.16 1003.15 1002.68 1002.33 1003.48 1004.41 1004.37 1004.96 1005.43 1005.98 1005.73 1006.44 1006.92 1007.18 1007.25 1007.45
993.24 993.21 993.07 992.84 993.07 993.89 995.81 996.39 997.41 999.47 1000.37 1001.13 1000.35 999.85 999.65 998.83 998.06 997.11 997.28 998.00 999.98 1000.58 1001.15 1002.64 1003.63 1004.17 1004.15 1004.35 1003.61 1003.29 1003.28 1002.94 1003.44 1004.35 1005.16 1005.68 1006.12 1006.47 1006.97 1007.24 1007.58 1007.70 1007.57 1007.55
992.68 991.83 989.97 987.50 985.52 988.87 994.19 996.29 996.91 998.19 999.37 999.44 1000.26 1000.18 999.55 997.41 996.99 997.07 997.69 998.29 999.81 1001.30 1002.95 1003.67 1004.58 1004.90 1004.74 1004.94 1004.52 1003.96 1003.33 1002.95 1003.39 1003.67 1004.08 1004.90 1006.29 1006.92 1007.31 1007.47 1007.63 1007.93 1008.10 1007.45
992.16 990.72 987.47 983.59 981.99 988.13 993.06 995.82 996.79 997.25 998.38 999.44 1000.27 1000.82 999.16 997.66 997.73 997.67 998.56 998.89 1000.38 1002.06 1003.76 1004.87 1005.15 1004.79 1004.39 1004.78 1004.87 1003.70 1003.38 1003.11 1003.10 1004.16 1004.80 1005.36 1006.08 1006.56 1006.64 1006.78 1006.71 1007.25 1007.30 1007.67
992.15 991.07 989.44 988.03 988.22 990.69 992.79 993.80 994.45 996.85 997.48 999.04 1000.44 999.55 998.92 998.64 998.78 999.19 1000.32 1000.43 1001.96 1002.99 1004.08 1004.55 1004.56 1004.56 1004.36 1004.61 1004.34 1003.77 1003.75 1003.50 1003.69 1004.08 1004.93 1005.50 1005.89 1006.37 1006.62 1006.81 1006.73 1006.77 1007.44 1007.91
992.63 992.10 991.45 991.52 991.44 992.85 994.27 994.90 995.08 996.35 997.39 999.36 999.58 999.52 999.42 999.21 998.55 999.90 1000.62 1001.77 1003.01 1003.77 1004.09 1004.55 1004.96 1005.28 1005.17 1004.25 1003.79 1003.65 1003.94 1003.85 1004.28 1004.53 1004.90 1005.21 1005.62 1006.29 1006.81 1006.89 1007.42 1007.88 1008.62 1009.16
992.90 992.62 992.59 992.62 993.15 994.09 994.98 995.08 995.90 996.59 997.63 997.77 997.89 998.36 999.64 999.37 999.74 1000.26 1001.17 1002.03 1003.11 1003.71 1003.60 1004.22 1004.39 1004.95 1004.65 1003.70 1003.65 1003.69 1004.05 1004.47 1004.94 1005.30 1005.56 1006.02 1006.75 1007.44 1007.83 1008.31 1008.89 1009.38 1010.12 1010.63
992.96 992.97 993.62 994.70 995.47 995.04 994.33 994.97 995.22 995.44 995.70 996.01 997.44 998.47 999.02 999.35 1000.02 1001.42 1002.26 1002.57 1003.45 1004.36 1004.88 1004.31 1004.71 1004.74 1004.08 1003.99 1003.64 1003.48 1004.21 1004.60 1004.95 1005.63 1006.52 1007.10 1007.93 1008.67 1009.20 1009.65 1010.20 1010.63 1011.04 1011.58
994.30 994.74 995.18 994.94 994.51 994.72 995.30 996.01 996.23 996.78 997.03 997.44 998.35 998.48 998.76 999.43 1000.02 1001.28 1001.94 1002.88 1003.42 1004.06 1004.69 1004.69 1005.02 1004.78 1003.99 1003.76 1003.81 1004.51 1005.03 1005.37 1005.78 1006.15 1007.01 1007.75 1008.55 1009.56 1010.22 1010.80 1011.22 1011.61 1011.98 1012.61
996.20 995.82 995.52 995.18 995.19 995.53 996.16 997.22 997.55 997.64 998.09 998.65 998.83 999.15 999.25 999.79 999.82 1001.01 1002.14 1002.85 1003.45 1003.89 1004.25 1004.42 1004.43 1003.78 1003.49 1004.11 1005.15 1005.99 1006.28 1006.69 1007.16 1007.59 1008.22 1008.91 1009.63 1010.24 1010.76 1011.32 1011.89 1012.49 1012.98 1013.41
995.77 996.26 996.62 996.91 997.47 997.51 997.72 998.02 998.18 998.23 998.08 998.60 999.09 999.62 999.77 1000.06 1000.20 1001.50 1002.24 1002.87 1003.57 1003.34 1004.15 1004.30 1004.03 1004.03 1004.69 1005.57 1006.32 1007.03 1007.51 1007.85 1008.32 1008.95 1009.40 1009.88 1010.46 1010.95 1011.29 1012.02 1012.68 1013.17 1013.67 1014.18
997.30 997.82 998.50 998.74 999.02 999.07 998.99 998.84 998.57 998.59 998.52 998.98 999.50 1000.17 1000.33 1000.98 1001.41 1002.12 1002.72 1003.33 1003.44 1004.31 1004.73 1004.33 1004.25 1004.52 1005.40 1006.40 1007.15 1007.61 1008.42 1008.72 1009.06 1009.58 1010.13 1010.46 1010.88 1011.63 1012.14 1012.66 1013.19 1013.85 1014.60 1015.18
998.17 998.76 1000.05 1000.15 1000.19 999.78 999.43 999.16 999.03 999.17 999.28 999.51 1000.03 1000.62 1000.97 1001.74 1002.20 1002.51 1002.98 1003.62 1003.86 1004.03 1004.06 1003.94 1004.03 1004.83 1005.89 1006.83 1007.47 1007.99 1008.55 1008.97 1009.39 1009.85 1010.33 1010.99 1011.71 1012.39 1013.00 1013.49 1014.01 1014.57 1015.21 1015.67
998.61 999.66 1000.66 1000.88 1000.88 1000.64 1000.20 1000.16 1000.04 999.96 999.91 1000.04 1000.68 1001.60 1002.14 1002.65 1002.75 1003.01 1003.47 1003.60 1003.84 1003.88 1003.72 1004.01 1004.47 1005.40 1006.25 1007.05 1007.70 1008.16 1008.56 1009.06 1009.69 1010.32 1010.97 1011.56 1012.18 1012.73 1013.37 1014.09 1014.82 1015.64 1016.05 1016.64
999.83 1001.07 1000.99 1001.39 1001.55 1001.58 1001.10 1000.80 1000.71 1000.19 1000.61 1001.48 1001.78 1002.46 1003.17 1003.26 1003.40 1003.72 1003.89 1003.80 1003.79 1003.62 1003.96 1004.26 1004.66 1005.38 1006.42 1007.19 1007.92 1008.52 1009.02 1009.54 1010.06 1010.68 1011.30 1011.98 1012.60 1013.19 1013.82 1014.69 1015.70 1016.10 1016.86 1017.37
Wind_Speed
22 24 24 22 20 16 7 4 6 3 10 7 4 10 11 26 23 30 21 4 21 5 8 11 12 15 11 12 13 17 11 4 4 11 4 1 3 8 7 6 6 3 5 9
22 24 25 23 22 21 5 5 5 5 2 9 13 17 18 22 17 25 27 22 6 15 6 3 10 9 7 11 15 17 11 7 1 8 6 1 6 7 5 4 4 7 6 7
17 18 23 24 24 24 8 3 3 7 6 12 12 19 22 18 26 20 26 31 22 10 6 7 6 8 2 8 13 10 15 6 9 12 8 5 5 6 6 7 5 5 6 5
21 23 21 25 26 27 12 7 6 6 7 14 24 19 16 28 17 22 21 26 19 22 12 9 8 3 2 2 3 6 10 9 6 6 6 4 4 5 9 7 6 7 7 10
23 23 24 27 30 30 13 10 6 6 11 12 20 23 15 26 28 19 27 25 34 19 22 7 5 6 5 6 4 7 3 4 5 5 6 7 5 8 7 4 4 6 5 13
23 24 24 23 32 30 10 9 3 5 10 16 16 17 30 25 29 31 31 40 16 20 24 3 5 4 5 5 8 8 9 8 5 5 4 4 6 10 11 8 6 9 10 14
24 24 21 23 31 34 10 7 6 9 14 12 15 24 25 37 29 33 32 21 28 19 4 7 3 6 5 2 5 4 4 5 4 4 3 5 6 4 6 7 9 9 6 5
27 25 24 23 26 34 12 9 8 8 11 17 22 21 20 24 32 28 21 12 13 8 6 6 4 5 7 4 5 6 5 5 4 5 5 6 6 3 7 5 7 6 5 6
29 28 26 25 26 33 20 13 9 8 8 18 25 23 24 17 19 19 22 8 8 7 4 4 8 12 7 8 2 3 6 5 6 3 4 12 4 5 5 5 16 7 7 3
29 28 26 28 27 29 19 12 18 11 11 18 12 20 14 17 17 12 6 12 14 13 7 4 4 10 7 11 14 7 4 2 11 4 6 8 6 10 6 6 10 5 6 5
27 27 27 29 27 27 20 12 20 18 12 13 9 15 12 18 17 13 9 9 2 6 13 13 7 6 11 2 6 11 10 9 5 3 3 16 7 3 10 4 2 6 5 4
21 24 26 26 32 29 33 10 13 14 9 4 10 19 17 13 32 17 4 16 8 8 8 4 5 1 1 7 15 2 11 9 9 10 9 5 3 4 5 4 6 3 5 3
19 25 23 22 26 27 24 13 13 9 10 7 14 6 5 2 11 4 8 2 6 4 2 5 3 6 5 6 8 5 2 3 4 3 3 6 10 6 8 7 6 4 2 3
16 16 22 29 35 36 33 9 11 13 3 5 4 4 9 8 6 3 2 9 5 5 4 4 3 3 1 3 2 4 3 4 7 1 6 11 8 6 6 5 3 3 4 4
12 20 25 30 26 52 25 10 11 15 4 5 2 5 8 4 4 12 12 13 8 4 4 3 3 2 4 2 3 3 4 7 8 8 6 5 5 8 5 3 2 6 9 7
9 21 24 12 29 50 19 11 8 11 5 3 4 3 6 11 10 18 14 6 7 5 4 3 2 1 2 5 5 3 4 4 5 5 5 6 7 8 6 7 10 14 12 13
13 21 26 30 43 19 5 4 9 14 5 5 3 1 4 6 2 5 5 9 5 3 3 2 2 2 3 2 3 4 5 4 4 6 6 2 3 5 11 11 12 7 5 6
13 16 19 19 19 16 8 4 12 8 7 2 3 2 3 4 3 5 2 4 2 3 3 3 3 3 2 3 4 4 4 4 4 6 6 4 4 5 4 5 5 9 8 7
13 10 8 6 7 4 2 5 4 5 6 7 3 5 4 2 3 4 3 2 3 2 3 2 3 2 4 5 7 7 5 6 8 8 9 11 11 9 9 7 8 10 7 8
12 7 4 4 2 11 6 6 3 4 2 3 4 2 3 4 2 3 3 2 3 3 0 2 3 1 4 5 5 7 7 7 9 9 6 6 8 8 8 9 8 8 7 7
5 5 3 3 7 3 3 4 5 4 4 4 3 4 5 1 5 3 2 3 1 3 3 4 3 3 4 5 9 9 9 10 11 12 11 9 10 9 8 8 7 7 7 6
2 2 2 3 5 4 6 3 1 2 3 2 3 3 3 2 4 4 2 4 1 3 5 3 3 3 5 11 11 9 9 11 12 11 12 10 10 9 9 8 8 7 7 6
3 5 5 4 4 9 5 3 2 1 2 3 3 4 3 3 4 4 3 3 1 7 4 3 2 5 7 9 10 10 9 11 12 11 9 10 10 10 10 9 8 8 8 6
4 4 8 4 4 4 2 1 1 1 5 8 4 3 4 1 4 1 5 2 4 3 2 4 4 9 10 7 7 11 11 12 11 10 10 11 11 10 9 8 7 7 6 5
4 5 5 5 3 2 2 2 3 4 2 4 3 4 4 3 4 2 4 3 1 3 4 3 5 11 12 9 8 11 11 11 9 9 9 10 9 8 8 6 7 7 6 6
4 6 3 1 4 5 5 4 3 2 2 2 4 4 4 3 3 3 1 5 3 3 3 3 9 11 10 9 9 9 9 9 8 8 9 9 8 7 7 6 7 6 6 7
4 3 2 3 3 2 2 2 2 3 4 2 3 5 2 1 3 1 2 4 4 3 1 4 9 12 11 10 11 9 9 9 9 8 7 6 7 8 8 8 5 7 8 6
Wind_Direction
256 245 236 232 224 209 171 225 242 248 132 195 200 234 228 201 215 217 247 287 228 242 223 191 206 196 201 186 155 186 200 165 213 236 235 83 238 202 152 158 216 208 166 259
254 245 238 227 219 197 138 221 237 288 122 223 221 209 224 221 199 209 222 234 253 233 222 212 209 203 226 161 172 169 170 205 88 324 349 136 206 204 181 111 86 198 192 260
257 258 237 231 217 201 173 182 244 190 225 244 260 229 246 206 224 225 213 229 243 283 246 221 247 219 239 190 194 168 157 153 171 197 201 156 184 184 182 149 144 202 218 253
258 252 260 230 217 202 179 196 210 216 204 220 230 239 215 215 205 209 219 221 223 221 244 231 210 193 169 48 163 154 176 194 180 218 212 149 195 199 171 165 178 178 211 227
253 259 254 235 211 199 203 211 190 220 255 241 222 225 233 247 212 197 208 224 214 216 221 210 187 146 204 195 167 164 212 229 155 207 206 177 211 221 217 154 209 259 248 269
251 253 252 241 210 194 202 202 209 214 237 237 240 242 229 241 217 218 210 214 204 212 223 198 303 267 177 162 159 176 166 150 126 228 155 113 300 202 181 194 176 191 225 249
252 249 250 258 212 198 201 198 186 212 229 236 230 231 236 228 235 211 213 197 207 222 219 127 9 23 11 125 112 126 134 100 83 165 99 215 253 248 160 163 188 203 254 256
251 247 237 244 227 204 200 188 188 200 226 233 245 239 252 232 227 223 213 204 200 128 99 102 76 317 341 238 210 140 146 108 93 153 201 308 263 224 138 154 258 207 220 292
248 244 242 239 235 214 203 208 196 213 225 231 234 236 228 242 224 213 210 221 205 125 116 126 152 201 196 197 249 196 117 112 121 120 164 230 116 184 163 86 266 162 154 160
247 247 237 235 235 217 215 202 191 199 226 241 217 225 238 233 235 215 190 177 207 187 194 192 168 212 192 187 190 155 128 36 199 163 232 287 258 136 119 183 269 135 130 134
241 241 233 234 226 229 223 214 186 192 219 238 212 245 224 240 240 200 187 148 210 160 191 205 197 207 207 149 168 171 161 160 178 110 237 261 194 93 200 209 65 120 122 136
241 238 232 237 245 226 203 213 179 195 213 262 234 269 250 288 228 204 253 178 168 166 165 196 148 142 109 159 223 94 206 186 171 171 210 200 20 79 46 67 109 97 109 81
246 253 242 225 214 217 211 190 166 162 207 250 275 259 266 274 261 229 168 321 159 170 89 147 154 187 128 181 220 178 274 101 171 93 152 116 101 77 72 71 74 64 39 304
251 255 260 248 233 212 200 183 162 172 142 221 244 299 263 255 213 152 58 132 94 87 46 101 139 140 128 183 161 182 157 121 152 164 100 107 85 93 99 71 353 305 274 245
258 264 282 274 245 184 180 171 169 172 219 158 134 340 282 351 124 104 128 131 111 82 57 66 161 135 117 29 53 239 192 170 186 218 118 87 118 143 140 145 266 275 257 252
305 333 344 360 158 142 142 152 186 169 200 82 123 277 290 54 90 92 69 62 69 78 112 147 145 296 132 139 195 239 196 153 121 141 152 149 172 188 195 208 213 231 238 243
11 4 27 86 107 116 127 148 121 138 120 121 191 166 354 329 304 60 62 47 66 83 105 94 101 74 70 128 191 197 187 155 115 124 110 93 144 222 227 228 245 231 104 53
16 20 15 46 94 101 72 40 102 134 80 77 209 100 62 305 41 91 61 86 80 46 116 112 119 103 204 195 202 116 128 118 187 206 184 194 128 112 57 56 76 78 61 55
5 11 40 25 29 47 50 344 127 169 167 168 167 127 151 55 39 79 61 90 83 72 54 50 95 129 225 208 163 170 176 182 152 99 89 81 81 72 53 59 63 88 83 76
7 31 43 64 30 304 326 357 32 33 333 50 77 98 122 109 98 83 103 35 86 89 149 96 72 310 270 239 170 140 150 138 137 116 105 91 89 85 80 76 80 92 90 82
29 25 33 246 297 66 46 42 47 344 37 39 49 53 113 18 100 127 75 150 138 109 176 124 154 232 226 134 89 87 90 85 75 90 97 99 121 126 116 102 88 85 81 86
359 318 335 338 27 34 71 43 6 41 100 102 93 110 93 62 89 85 339 100 147 137 145 101 166 244 88 109 107 96 97 100 98 102 109 106 106 110 110 104 100 97 95 82
15 39 33 38 325 39 41 15 47 92 93 110 120 91 99 38 51 63 92 82 123 115 54 185 221 133 113 118 116 104 97 101 104 101 100 103 102 102 107 105 99 96 85 74
56 45 15 64 9 31 8 312 13 318 95 106 103 68 84 58 62 150 85 55 104 64 110 221 170 152 137 124 126 124 124 122 117 114 115 110 102 97 87 88 97 98 97 110
58 60 32 32 333 324 320 318 57 38 60 77 53 47 73 26 82 30 96 64 150 199 214 212 158 142 142 140 127 124 131 131 117 113 109 108 109 108 104 99 111 105 91 91
49 52 50 327 40 3 30 19 49 351 93 76 51 77 59 45 107 75 136 140 197 243 209 148 132 134 135 136 134 127 124 123 120 119 123 118 114 120 113 92 89 87 97 91
48 8 6 103 114 218 26 43 335 320 56 65 68 65 38 78 56 106 174 189 219 206 123 124 143 144 141 130 133 136 137 135 128 122 120 113 113 114 114 111 113 108 103 106